Regional Weather Roundup
Issued by NWS Sterling, VA

Home | Current Version | Previous Version | Graphics & Text | Print | Product List | Glossary On
Versions: 1 2 3 4 5 6 7 8 9 10 11 12 13 14 15 16 17 18 19 20 21 22 23 24 25 26 27
000
ASUS41 KLWX 250911
RWRLWX

REGIONAL WEATHER ROUNDUP
NATIONAL WEATHER SERVICE BALTIMORE MD/WASHINGTON DC
500 AM EDT WED APR 25 2018

Note: "FAIR" indicates few or no clouds below 12,000 feet
with no significant weather and/or obstructions to visibility.
 TC=TEMPERATURE CELSIUS

 * =Non NWS site. Station does not report precipitation (e.g. rain,
    snow, etc.), thunder, or fog.

DCZ001-MDZ009-015-VAZ040>042-051-053>054-251000-
WASHINGTON METRO

CITY           SKY/WX    TMP DP  RH WIND       PRES   REMARKS
WASHINGTON NAT LGT RAIN  57  54  89 N8        29.82F FOG
DULLES         LGT RAIN  53  53 100 N7        29.82F FOG
ANDREWS AFB    DRIZZLE   55  55 100 NE7       29.80F FOG
FT BELVOIR     CLOUDY    55  55 100 CALM      29.80F
QUANTICO       CLOUDY    57  57 100 NE8       29.80F
COLLEGE PARK*  CLOUDY    55  54  97 N3        29.82F
LEESBURG*      CLOUDY    50  50 100 NE6       29.84F FOG
MANASSAS*      LGT RAIN  54  53  97 N7        29.82F FOG
GAITHERSBURG*  RAIN      53  52  96 NE5       29.83F FOG

$$

MDZ006>007-011-014-251000-
BALTIMORE METRO

CITY           SKY/WX    TMP DP  RH WIND       PRES   REMARKS
BWI AIRPORT    LGT RAIN  56  56 100 NE7       29.82F FOG
MD SCIENCE CTR   N/A     57  56  96 MISG      29.84F
MARTIN STATE   CLOUDY    55  55 100 CALM      29.85F
ANNAPOLIS      RAIN      59  59 100 NE3       29.81F FOG
FORT MEADE*    CLOUDY    54  54 100 CALM      29.85F

$$

MDZ012-015-019>023-251000-
MARYLAND EASTERN SHORE

CITY           SKY/WX    TMP DP  RH WIND       PRES   REMARKS
OCEAN CITY     LGT RAIN  53  53 100 E6        29.81F FOG
SALISBURY      LGT RAIN  58  58 100 E14       29.80F
BAY BRIDGE AP* HVY RAIN  57  57 100 E8        29.82F FOG
CAMBRIDGE*     CLOUDY    59  59 100 E8        29.81F
EASTON*        LGT RAIN  59  57  94 SE7       29.86F

$$

MDZ017>025-251000-
SOUTHERN MARYLAND

CITY           SKY/WX    TMP DP  RH WIND       PRES   REMARKS
PATUXENT RIVER CLOUDY    59  56  89 E8        29.80F FOG
ST INIGOES     NOT AVBL
LEONARDTOWN*   CLOUDY    57  55  94 E7        29.81F

$$

MDZ003>005-251000-
NORTH CENTRAL MARYLAND

CITY           SKY/WX    TMP DP  RH WIND       PRES   REMARKS
FREDERICK*     LGT RAIN  52  52 100 N8        29.87F
HAGERSTOWN APT LGT RAIN  51  50  96 N9        29.84F FOG
WESTMINSTER*   DRIZZLE   54  54 100 E5        29.84F

$$

MDZ501>502-251000-
WESTERN MARYLAND

CITY           SKY/WX    TMP DP  RH WIND       PRES   REMARKS
OAKLAND*       CLOUDY    43  43 100 SE9       29.84F VSB 1/2
CUMBERLAND*    MOCLDY    52  52 100 CALM      29.90F

$$

VAZ025>031-251000-
SHENANDOAH VALLEY

CITY           SKY/WX    TMP DP  RH WIND       PRES   REMARKS
WINCHESTER*    CLOUDY    50  48  93 N3        29.85F
FRONT ROYAL*   CLOUDY    50  50 100 CALM      29.83F
LURAY*         CLOUDY    52  50  93 NE5       29.83F
NEW MARKET*    CLOUDY    50  49  96 NE7       29.83F
STAUNTON*      CLOUDY    49  49  98 N9        29.84S
WAYNESBORO*    CLOUDY    49  49 100 N7        29.82F

$$

WVZ021-048>050-054>055-251000-
EASTERN WEST VIRGINIA PANHANDLE

CITY           SKY/WX    TMP DP  RH WIND       PRES   REMARKS
MARTINSBURG    CLOUDY    51  50  96 N8        29.84F
PETERSBURG*    DRIZZLE   50  49  96 CALM      29.85F

$$

VAZ036>039-050-251000-
CENTRAL FOOTHILLS

CITY           SKY/WX    TMP DP  RH WIND       PRES   REMARKS
CHARLOTTESVILL CLOUDY    55  52  89 NE8       29.79F
CULPEPER*      DRIZZLE   54  52  95 N7        29.82F
ORANGE*        CLOUDY    52  50  93 N7        29.80F
GORDONSVILLE*  CLOUDY    52  52 100 N8        29.79F
WARRENTON*     CLOUDY    54  51  89 N6        29.81F FOG

$$

VAZ055>057-251000-
NORTH AND CENTRAL PIEDMONT

CITY           SKY/WX    TMP DP  RH WIND       PRES   REMARKS
FREDERICKSBRG* CLOUDY    55  55 100 N5        29.78F FOG
STAFFORD*      LGT RAIN  55  55 100 N6        29.83F

$$

NCZ024-NYZ072-PAZ021-071-VAZ022-071-251000-
OTHER REGIONAL OBSERVATIONS

CITY           SKY/WX    TMP DP  RH WIND       PRES   REMARKS
NEW YORK CITY  LGT RAIN  54  52  93 VRB3      30.01F FOG
PHILADELPHIA   CLOUDY    55  54  96 E12       29.89F FOG
PITTSBURGH     CLOUDY    50  49  96 NE3       29.84F
ROANOKE        LGT RAIN  53  51  93 NE8       29.80F
RICHMOND       CLOUDY    60  60 100 NE7       29.75F
RALEIGH        MOCLDY    60  60 100 S3        29.73F

$$

ANZ530>537-251000-
MARINE OBSERVATIONS

STATION/POSITION TIME  TEMP    WIND        PRES
                       AIR SEA DIR/SP/G
                 (UTC) (F)     (DEG/KT/KT) (MB)
THOMAS PT LIGHT  0900   57 53  100/ 10/ 10 1010.5F
BALT KEY BRIDGE  0848   56     360/  4/  4 1010.3F
COVE POINT       0848   58     140/ 10/ 13 1009.9F
LEWISETTA        0848   55 56  110/  9/ 11 1008.6F
SOLOMONS ISLAND  0848   56 53   80/  7/  8 1008.8F
PINEY POINT      0848          120/ 11/ 12   N/A

$$





USA.gov is the U.S. government's official web portal to all federal, state and local government web resources and services.